Time,TemperatureF,DewpointF,PressureIn,WindDirection,WindDirectionDegrees,WindSpeedMPH,WindSpeedGustMPH,Humidity,HourlyPrecipIn,Conditions,Clouds,dailyrainin,SoftwareType,DateUTC
2013-04-23 00:00:00,69.1,69.1,29.96,WNW,283,0.0,0.0,100,0.00,,---,0.81,VWS V14.01,2013-04-23 04:00:00,
2013-04-23 00:01:00,69.1,69.1,29.96,WNW,283,0.0,0.0,100,0.00,,---,0.81,VWS V14.01,2013-04-23 04:01:00,
2013-04-23 00:02:00,69.1,69.1,29.95,WNW,283,0.0,0.0,100,0.00,,---,0.81,VWS V14.01,2013-04-23 04:02:00,
2013-04-23 00:04:00,69.1,69.1,29.95,WNW,283,0.0,0.0,100,0.00,,---,0.00,VWS V14.01,2013-04-23 04:04:00,
2013-04-23 00:09:00,69.1,69.1,29.95,WNW,283,0.0,0.0,100,0.00,,---,0.00,VWS V14.01,2013-04-23 04:09:00,
2013-04-23 00:14:00,69.1,69.1,29.95,WNW,283,0.0,0.0,100,0.00,,---,0.00,VWS V14.01,2013-04-23 04:14:00,
2013-04-23 00:19:00,69.1,69.1,29.95,WNW,283,0.0,0.0,100,0.00,,---,0.00,VWS V14.01,2013-04-23 04:19:00,
2013-04-23 00:24:00,69.1,69.1,29.95,WNW,283,0.0,0.0,100,0.00,,---,0.00,VWS V14.01,2013-04-23 04:24:00,
2013-04-23 00:29:00,69.1,69.1,29.95,WNW,283,0.0,0.0,100,0.00,,---,0.00,VWS V14.01,2013-04-23 04:29:00,
2013-04-23 00:34:00,69.1,69.1,29.95,WNW,283,0.0,0.0,100,0.00,,---,0.00,VWS V14.01,2013-04-23 04:34:00,
2013-04-23 00:39:00,69.1,69.1,29.95,WNW,283,0.0,0.0,100,0.00,,---,0.00,VWS V14.01,2013-04-23 04:39:00,
2013-04-23 00:44:00,69.3,69.3,29.95,WNW,283,0.0,0.0,100,0.00,,---,0.00,VWS V14.01,2013-04-23 04:44:00,
2013-04-23 00:49:00,69.3,69.3,29.94,WNW,283,0.0,0.0,100,0.00,,---,0.00,VWS V14.01,2013-04-23 04:49:00,
2013-04-23 00:54:00,69.3,69.3,29.94,WNW,283,0.0,0.0,100,0.00,,---,0.00,VWS V14.01,2013-04-23 04:54:00,
2013-04-23 00:59:00,69.1,69.1,29.94,WNW,283,0.0,0.0,100,0.00,,---,0.00,VWS V14.01,2013-04-23 04:59:00,
2013-04-23 01:04:00,69.1,69.1,29.94,WNW,283,0.0,0.0,100,0.00,,---,0.00,VWS V14.01,2013-04-23 05:04:00,
2013-04-23 01:09:00,69.1,69.1,29.94,WNW,283,0.0,0.0,100,0.00,,---,0.00,VWS V14.01,2013-04-23 05:09:00,
2013-04-23 01:14:00,69.1,69.1,29.94,WNW,283,0.0,0.0,100,0.00,,---,0.00,VWS V14.01,2013-04-23 05:14:00,
2013-04-23 01:19:00,68.9,68.9,29.94,WNW,283,0.0,0.0,100,0.00,,---,0.00,VWS V14.01,2013-04-23 05:19:00,
2013-04-23 01:25:00,68.9,68.9,29.94,WNW,283,0.0,0.0,100,0.00,,---,0.00,VWS V14.01,2013-04-23 05:25:00,
2013-04-23 01:30:00,68.8,68.8,29.94,WNW,283,0.0,0.0,100,0.00,,---,0.00,VWS V14.01,2013-04-23 05:30:00,
2013-04-23 01:35:00,68.8,68.8,29.94,WNW,283,0.0,0.0,100,0.00,,---,0.00,VWS V14.01,2013-04-23 05:35:00,
2013-04-23 01:40:00,68.9,68.9,29.94,WNW,283,0.0,0.0,100,0.00,,---,0.00,VWS V14.01,2013-04-23 05:40:00,
2013-04-23 01:45:00,68.9,68.9,29.94,WNW,283,0.0,0.0,100,0.00,,---,0.00,VWS V14.01,2013-04-23 05:45:00,
2013-04-23 01:50:00,68.9,68.9,29.93,WNW,283,0.0,0.0,100,0.00,,---,0.00,VWS V14.01,2013-04-23 05:50:00,
2013-04-23 01:55:00,68.9,68.9,29.93,WNW,283,0.0,0.0,100,0.00,,---,0.00,VWS V14.01,2013-04-23 05:55:00,
2013-04-23 02:00:00,68.8,68.8,29.93,WNW,283,0.0,0.0,100,0.00,,---,0.00,VWS V14.01,2013-04-23 06:00:00,
2013-04-23 02:05:00,68.8,68.8,29.93,WNW,283,0.0,0.0,100,0.01,,---,0.01,VWS V14.01,2013-04-23 06:05:00,
2013-04-23 02:10:00,68.8,68.8,29.93,WNW,283,0.0,1.0,100,0.01,,---,0.01,VWS V14.01,2013-04-23 06:10:00,
2013-04-23 02:15:00,68.8,68.8,29.93,WNW,283,0.0,1.0,100,0.01,,---,0.01,VWS V14.01,2013-04-23 06:15:00,
2013-04-23 02:20:00,68.8,68.8,29.92,WNW,283,0.0,1.0,100,0.01,,---,0.01,VWS V14.01,2013-04-23 06:20:00,
2013-04-23 02:25:00,68.8,68.8,29.92,WNW,283,0.0,1.0,100,0.01,,---,0.01,VWS V14.01,2013-04-23 06:25:00,
2013-04-23 02:30:00,68.6,68.6,29.92,WNW,283,0.0,1.0,100,0.01,,---,0.01,VWS V14.01,2013-04-23 06:30:00,
2013-04-23 02:35:00,68.6,68.6,29.91,WNW,283,0.0,0.0,100,0.01,,---,0.01,VWS V14.01,2013-04-23 06:35:00,
2013-04-23 02:40:00,68.6,68.6,29.91,WNW,283,0.0,0.0,100,0.01,,---,0.01,VWS V14.01,2013-04-23 06:40:00,
2013-04-23 02:45:00,68.8,68.8,29.91,WNW,283,0.0,0.0,100,0.01,,---,0.01,VWS V14.01,2013-04-23 06:45:00,
2013-04-23 02:50:00,68.6,68.6,29.91,WNW,283,0.0,0.0,100,0.01,,---,0.01,VWS V14.01,2013-04-23 06:50:00,
2013-04-23 02:55:00,68.6,68.6,29.91,WNW,283,0.0,0.0,100,0.01,,---,0.01,VWS V14.01,2013-04-23 06:55:00,
2013-04-23 03:00:00,68.6,68.6,29.91,WNW,283,0.0,0.0,100,0.01,,---,0.01,VWS V14.01,2013-04-23 07:00:00,
2013-04-23 03:05:00,68.4,68.4,29.90,WNW,283,0.0,0.0,100,0.00,,---,0.01,VWS V14.01,2013-04-23 07:05:00,
2013-04-23 03:10:00,68.6,68.6,29.90,WNW,283,0.0,1.0,100,0.00,,---,0.01,VWS V14.01,2013-04-23 07:10:00,
2013-04-23 03:16:00,68.4,68.4,29.90,WNW,283,0.0,1.0,100,0.00,,---,0.01,VWS V14.01,2013-04-23 07:16:00,
2013-04-23 03:21:00,68.4,68.4,29.90,WNW,283,0.0,1.0,100,0.00,,---,0.01,VWS V14.01,2013-04-23 07:21:00,
2013-04-23 03:26:00,68.4,68.4,29.90,WNW,283,0.0,1.0,100,0.00,,---,0.01,VWS V14.01,2013-04-23 07:26:00,
2013-04-23 03:31:00,68.4,68.4,29.90,WNW,283,0.0,1.0,100,0.00,,---,0.01,VWS V14.01,2013-04-23 07:31:00,
2013-04-23 03:36:00,68.4,68.4,29.90,WNW,283,0.0,1.0,100,0.00,,---,0.01,VWS V14.01,2013-04-23 07:36:00,
2013-04-23 03:41:00,68.3,68.3,29.90,WNW,283,0.0,1.0,100,0.00,,---,0.01,VWS V14.01,2013-04-23 07:41:00,
2013-04-23 03:46:00,68.3,68.3,29.90,WNW,283,0.0,1.0,100,0.00,,---,0.01,VWS V14.01,2013-04-23 07:46:00,
2013-04-23 03:51:00,68.3,68.3,29.90,WNW,283,1.0,1.0,100,0.00,,---,0.01,VWS V14.01,2013-04-23 07:51:00,
2013-04-23 03:56:00,68.1,68.1,29.90,WNW,283,0.0,1.0,100,0.00,,---,0.01,VWS V14.01,2013-04-23 07:56:00,
2013-04-23 04:01:00,68.1,68.1,29.90,WNW,283,0.0,1.0,100,0.00,,---,0.01,VWS V14.01,2013-04-23 08:01:00,
2013-04-23 04:06:00,68.1,68.1,29.89,WNW,283,0.0,0.0,100,0.00,,---,0.01,VWS V14.01,2013-04-23 08:06:00,
2013-04-23 04:11:00,68.1,68.1,29.89,WNW,283,0.0,0.0,100,0.00,,---,0.01,VWS V14.01,2013-04-23 08:11:00,
2013-04-23 04:16:00,67.9,67.9,29.89,WNW,283,0.0,0.0,100,0.00,,---,0.01,VWS V14.01,2013-04-23 08:16:00,
2013-04-23 04:21:00,67.9,67.9,29.89,WNW,283,0.0,0.0,100,0.00,,---,0.01,VWS V14.01,2013-04-23 08:21:00,
2013-04-23 04:26:00,67.9,67.9,29.89,WNW,283,0.0,0.0,100,0.00,,---,0.01,VWS V14.01,2013-04-23 08:26:00,
2013-04-23 04:31:00,67.9,67.9,29.89,WNW,283,0.0,2.0,100,0.00,,---,0.01,VWS V14.01,2013-04-23 08:31:00,
2013-04-23 04:36:00,67.9,67.9,29.89,WNW,283,0.0,0.0,100,0.00,,---,0.01,VWS V14.01,2013-04-23 08:36:00,
2013-04-23 04:41:00,67.9,67.9,29.89,WNW,283,0.0,1.0,100,0.00,,---,0.01,VWS V14.01,2013-04-23 08:41:00,
2013-04-23 04:46:00,67.9,67.9,29.89,WNW,283,0.0,1.0,100,0.00,,---,0.01,VWS V14.01,2013-04-23 08:46:00,
2013-04-23 04:51:00,67.9,67.9,29.89,WNW,283,0.0,1.0,100,0.00,,---,0.01,VWS V14.01,2013-04-23 08:51:00,
2013-04-23 04:56:00,67.9,67.9,29.89,WNW,283,2.0,3.0,100,0.00,,---,0.01,VWS V14.01,2013-04-23 08:56:00,
2013-04-23 05:02:00,68.1,68.1,29.89,WNW,283,1.0,3.0,100,0.00,,---,0.01,VWS V14.01,2013-04-23 09:02:00,
2013-04-23 05:07:00,68.1,68.1,29.90,WNW,283,2.0,3.0,100,0.00,,---,0.01,VWS V14.01,2013-04-23 09:07:00,
2013-04-23 05:12:00,67.9,67.9,29.90,WNW,283,1.0,3.0,100,0.00,,---,0.01,VWS V14.01,2013-04-23 09:12:00,
2013-04-23 05:17:00,67.9,67.9,29.90,WNW,283,1.0,3.0,100,0.00,,---,0.01,VWS V14.01,2013-04-23 09:17:00,
2013-04-23 05:22:00,67.9,67.9,29.90,WNW,283,1.0,3.0,100,0.00,,---,0.01,VWS V14.01,2013-04-23 09:22:00,
2013-04-23 05:27:00,67.8,67.8,29.90,WNW,283,0.0,3.0,100,0.00,,---,0.01,VWS V14.01,2013-04-23 09:27:00,
2013-04-23 05:32:00,67.8,67.8,29.90,WNW,283,1.0,3.0,100,0.00,,---,0.01,VWS V14.01,2013-04-23 09:32:00,
2013-04-23 05:37:00,67.8,67.8,29.90,WNW,283,0.0,3.0,100,0.00,,---,0.01,VWS V14.01,2013-04-23 09:37:00,
2013-04-23 05:42:00,67.6,67.6,29.90,WNW,283,0.0,3.0,100,0.00,,---,0.01,VWS V14.01,2013-04-23 09:42:00,
2013-04-23 05:47:00,67.6,67.6,29.90,WNW,283,0.0,3.0,100,0.00,,---,0.01,VWS V14.01,2013-04-23 09:47:00,
2013-04-23 05:52:00,67.4,67.4,29.90,WNW,283,1.0,3.0,100,0.00,,---,0.01,VWS V14.01,2013-04-23 09:52:00,
2013-04-23 05:57:00,67.4,67.4,29.90,WNW,283,0.0,3.0,100,0.00,,---,0.01,VWS V14.01,2013-04-23 09:57:00,
2013-04-23 06:02:00,67.4,67.4,29.90,WNW,283,2.0,3.0,100,0.00,,---,0.01,VWS V14.01,2013-04-23 10:02:00,
2013-04-23 06:07:00,67.3,67.3,29.90,WNW,283,2.0,4.0,100,0.00,,---,0.01,VWS V14.01,2013-04-23 10:07:00,
2013-04-23 06:12:00,67.3,67.3,29.90,WNW,283,0.0,4.0,100,0.00,,---,0.01,VWS V14.01,2013-04-23 10:12:00,
2013-04-23 06:17:00,67.3,67.3,29.91,WNW,283,2.0,4.0,100,0.00,,---,0.01,VWS V14.01,2013-04-23 10:17:00,
2013-04-23 06:22:00,67.3,67.3,29.91,WNW,283,1.0,4.0,100,0.00,,---,0.01,VWS V14.01,2013-04-23 10:22:00,
2013-04-23 06:27:00,67.3,67.3,29.91,WNW,283,0.0,4.0,100,0.00,,---,0.01,VWS V14.01,2013-04-23 10:27:00,
2013-04-23 06:32:00,67.3,67.3,29.91,WNW,283,1.0,4.0,100,0.00,,---,0.01,VWS V14.01,2013-04-23 10:32:00,
2013-04-23 06:37:00,67.3,67.3,29.91,WNW,283,0.0,2.0,100,0.00,,---,0.01,VWS V14.01,2013-04-23 10:37:00,
2013-04-23 06:42:00,67.3,67.3,29.91,WNW,283,0.0,2.0,100,0.00,,---,0.01,VWS V14.01,2013-04-23 10:42:00,
2013-04-23 06:47:00,67.3,67.3,29.91,WNW,283,0.0,2.0,100,0.00,,---,0.01,VWS V14.01,2013-04-23 10:47:00,
2013-04-23 06:52:00,67.3,67.3,29.91,WNW,283,0.0,2.0,100,0.00,,---,0.01,VWS V14.01,2013-04-23 10:52:00,
2013-04-23 06:58:00,67.3,67.3,29.91,WNW,283,0.0,2.0,100,0.00,,---,0.01,VWS V14.01,2013-04-23 10:58:00,
2013-04-23 07:03:00,67.3,67.3,29.92,WNW,283,0.0,2.0,100,0.00,,---,0.01,VWS V14.01,2013-04-23 11:03:00,
2013-04-23 07:08:00,67.3,67.3,29.92,WNW,283,0.0,0.0,100,0.00,,---,0.01,VWS V14.01,2013-04-23 11:08:00,
2013-04-23 07:13:00,67.3,67.3,29.92,WNW,283,1.0,1.0,100,0.00,,---,0.01,VWS V14.01,2013-04-23 11:13:00,
2013-04-23 07:18:00,67.3,67.3,29.92,WNW,283,0.0,1.0,100,0.00,,---,0.01,VWS V14.01,2013-04-23 11:18:00,
2013-04-23 07:23:00,67.4,67.4,29.92,WNW,283,0.0,2.0,100,0.00,,---,0.01,VWS V14.01,2013-04-23 11:23:00,
2013-04-23 07:28:00,67.4,67.4,29.92,WNW,283,0.0,2.0,100,0.00,,---,0.01,VWS V14.01,2013-04-23 11:28:00,
2013-04-23 07:33:00,67.6,67.6,29.92,West,278,0.0,0.0,100,0.00,,---,0.01,VWS V14.01,2013-04-23 11:33:00,
2013-04-23 07:38:00,67.9,67.9,29.92,West,278,0.0,2.0,100,0.00,,---,0.01,VWS V14.01,2013-04-23 11:38:00,
2013-04-23 07:43:00,68.1,68.1,29.92,West,278,0.0,2.0,100,0.00,,---,0.01,VWS V14.01,2013-04-23 11:43:00,
2013-04-23 07:48:00,68.4,68.4,29.93,West,278,0.0,3.0,100,0.00,,---,0.01,VWS V14.01,2013-04-23 11:48:00,
2013-04-23 07:53:00,68.6,68.6,29.93,West,279,1.0,3.0,100,0.00,,---,0.01,VWS V14.01,2013-04-23 11:53:00,
2013-04-23 07:58:00,68.9,68.9,29.93,West,280,0.0,4.0,100,0.00,,---,0.01,VWS V14.01,2013-04-23 11:58:00,
2013-04-23 08:03:00,69.1,69.1,29.93,West,280,2.0,2.0,100,0.00,,---,0.01,VWS V14.01,2013-04-23 12:03:00,
2013-04-23 08:09:00,69.4,69.4,29.93,West,280,1.0,4.0,100,0.00,,---,0.01,VWS V14.01,2013-04-23 12:09:00,
2013-04-23 08:14:00,69.6,69.6,29.93,West,281,1.0,4.0,100,0.00,,---,0.01,VWS V14.01,2013-04-23 12:14:00,
2013-04-23 08:19:00,69.9,69.9,29.94,West,281,1.0,4.0,100,0.00,,---,0.01,VWS V14.01,2013-04-23 12:19:00,
2013-04-23 08:24:00,70.1,70.1,29.94,WNW,282,5.0,5.0,100,0.00,,---,0.01,VWS V14.01,2013-04-23 12:24:00,
2013-04-23 08:29:00,70.4,70.4,29.94,West,262,3.0,5.0,100,0.00,,---,0.01,VWS V14.01,2013-04-23 12:29:00,
2013-04-23 08:34:00,70.4,70.4,29.94,West,265,2.0,4.0,100,0.00,,---,0.01,VWS V14.01,2013-04-23 12:34:00,
2013-04-23 08:39:00,70.8,70.8,29.94,West,266,0.0,4.0,100,0.00,,---,0.01,VWS V14.01,2013-04-23 12:39:00,
2013-04-23 08:44:00,71.3,71.3,29.94,West,266,0.0,4.0,100,0.00,,---,0.01,VWS V14.01,2013-04-23 12:44:00,
2013-04-23 08:49:00,71.5,71.5,29.95,West,267,1.0,5.0,100,0.00,,---,0.01,VWS V14.01,2013-04-23 12:49:00,
2013-04-23 08:54:00,71.8,71.8,29.95,West,271,4.0,5.0,100,0.00,,---,0.01,VWS V14.01,2013-04-23 12:54:00,
2013-04-23 08:59:00,72.1,72.1,29.95,West,272,2.0,5.0,100,0.00,,---,0.01,VWS V14.01,2013-04-23 12:59:00,
2013-04-23 09:04:00,72.5,72.5,29.95,West,273,0.0,2.0,100,0.00,,---,0.01,VWS V14.01,2013-04-23 13:04:00,
2013-04-23 09:09:00,72.8,72.8,29.95,West,273,2.0,2.0,100,0.00,,---,0.01,VWS V14.01,2013-04-23 13:09:00,
2013-04-23 09:14:00,73.0,73.0,29.95,NE,39,3.0,6.0,100,0.00,,---,0.01,VWS V14.01,2013-04-23 13:14:00,
2013-04-23 09:19:00,73.0,73.0,29.96,NE,34,3.0,6.0,100,0.00,,---,0.01,VWS V14.01,2013-04-23 13:19:00,
2013-04-23 09:24:00,73.5,73.5,29.96,NNW,345,4.0,6.0,100,0.00,,---,0.01,VWS V14.01,2013-04-23 13:24:00,
2013-04-23 09:29:00,73.9,73.9,29.96,NNW,345,2.0,6.0,100,0.00,,---,0.01,VWS V14.01,2013-04-23 13:29:00,
2013-04-23 09:34:00,74.0,74.0,29.96,North,349,2.0,5.0,100,0.00,,---,0.01,VWS V14.01,2013-04-23 13:34:00,
2013-04-23 09:39:00,74.6,74.6,29.96,NNE,12,1.0,6.0,100,0.00,,---,0.01,VWS V14.01,2013-04-23 13:39:00,
2013-04-23 09:44:00,74.9,74.9,29.96,North,5,3.0,6.0,100,0.00,,---,0.01,VWS V14.01,2013-04-23 13:44:00,
2013-04-23 09:49:00,75.4,75.1,29.96,NNW,342,2.0,9.0,99,0.00,,---,0.01,VWS V14.01,2013-04-23 13:49:00,
2013-04-23 09:54:00,76.1,75.2,29.96,North,351,1.0,9.0,97,0.00,,---,0.01,VWS V14.01,2013-04-23 13:54:00,
2013-04-23 09:59:00,76.5,74.7,29.96,North,355,1.0,9.0,94,0.00,,---,0.01,VWS V14.01,2013-04-23 13:59:00,
2013-04-23 10:05:00,77.2,74.0,29.97,East,90,6.0,8.0,90,0.00,,---,0.01,VWS V14.01,2013-04-23 14:05:00,
2013-04-23 10:10:00,77.9,72.0,29.97,ENE,75,2.0,9.0,82,0.00,,---,0.01,VWS V14.01,2013-04-23 14:10:00,
2013-04-23 10:15:00,79.0,71.2,29.97,NE,55,4.0,9.0,77,0.00,,---,0.01,VWS V14.01,2013-04-23 14:15:00,
2013-04-23 10:20:00,79.6,70.6,29.97,NE,53,1.0,9.0,74,0.00,,---,0.01,VWS V14.01,2013-04-23 14:20:00,
2013-04-23 10:25:00,79.6,70.2,29.97,NNE,21,3.0,9.0,73,0.01,,---,0.02,VWS V14.01,2013-04-23 14:25:00,
2013-04-23 10:30:00,79.8,70.8,29.97,North,349,3.0,9.0,74,0.01,,---,0.02,VWS V14.01,2013-04-23 14:30:00,
2013-04-23 10:35:00,79.8,69.2,29.98,NNE,15,7.0,7.0,70,0.01,,---,0.02,VWS V14.01,2013-04-23 14:35:00,
2013-04-23 10:40:00,79.8,68.7,29.98,NE,35,1.0,10.0,69,0.01,,---,0.02,VWS V14.01,2013-04-23 14:40:00,
2013-04-23 10:45:00,80.1,68.2,29.98,NE,36,4.0,10.0,67,0.01,,---,0.02,VWS V14.01,2013-04-23 14:45:00,
2013-04-23 10:50:00,80.5,67.2,29.99,NNE,12,4.0,12.0,64,0.01,,---,0.02,VWS V14.01,2013-04-23 14:50:00,
2013-04-23 10:55:00,81.1,67.8,29.99,NNW,334,6.0,12.0,64,0.01,,---,0.02,VWS V14.01,2013-04-23 14:55:00,
2013-04-23 11:00:00,81.6,67.8,29.99,ENE,57,3.0,12.0,63,0.01,,---,0.02,VWS V14.01,2013-04-23 15:00:00,
2013-04-23 11:05:00,81.6,67.3,29.99,NE,51,5.0,13.0,62,0.01,,---,0.02,VWS V14.01,2013-04-23 15:05:00,
2013-04-23 11:10:00,81.6,67.3,29.99,ENE,64,3.0,14.0,62,0.01,,---,0.02,VWS V14.01,2013-04-23 15:10:00,
2013-04-23 11:15:00,81.6,67.3,29.99,NE,44,7.0,14.0,62,0.01,,---,0.02,VWS V14.01,2013-04-23 15:15:00,
2013-04-23 11:20:00,82.0,67.2,29.99,ENE,60,7.0,14.0,61,0.01,,---,0.02,VWS V14.01,2013-04-23 15:20:00,
2013-04-23 11:25:00,82.4,68.1,29.99,NE,53,12.0,14.0,62,0.01,,---,0.02,VWS V14.01,2013-04-23 15:25:00,
2013-04-23 11:30:00,82.8,68.9,29.99,ENE,59,5.0,14.0,63,0.01,,---,0.02,VWS V14.01,2013-04-23 15:30:00,
2013-04-23 11:35:00,83.2,68.8,29.99,ENE,63,7.0,7.0,62,0.00,,---,0.02,VWS V14.01,2013-04-23 15:35:00,
2013-04-23 11:40:00,83.6,68.7,29.99,ENE,78,6.0,12.0,61,0.00,,---,0.02,VWS V14.01,2013-04-23 15:40:00,
2013-04-23 11:45:00,84.0,70.5,29.99,East,90,7.0,12.0,64,0.00,,---,0.02,VWS V14.01,2013-04-23 15:45:00,
2013-04-23 11:50:00,84.1,70.2,29.99,NE,39,4.0,13.0,63,0.00,,---,0.02,VWS V14.01,2013-04-23 15:50:00,
2013-04-23 11:55:00,84.1,68.7,29.99,NE,48,5.0,13.0,60,0.00,,---,0.02,VWS V14.01,2013-04-23 15:55:00,
2013-04-23 12:01:00,84.1,69.7,29.99,ENE,65,6.0,13.0,62,0.00,,---,0.02,VWS V14.01,2013-04-23 16:01:00,
2013-04-23 12:06:00,84.3,68.9,29.99,NNW,344,5.0,10.0,60,0.00,,---,0.02,VWS V14.01,2013-04-23 16:06:00,
2013-04-23 12:11:00,84.5,67.6,29.99,ENE,60,9.0,10.0,57,0.00,,---,0.02,VWS V14.01,2013-04-23 16:11:00,
2013-04-23 12:16:00,84.5,67.1,29.99,NE,36,5.0,10.0,56,0.00,,---,0.02,VWS V14.01,2013-04-23 16:16:00,
2013-04-23 12:21:00,84.7,66.8,29.99,ENE,65,1.0,10.0,55,0.00,,---,0.02,VWS V14.01,2013-04-23 16:21:00,
2013-04-23 12:26:00,85.1,68.7,29.99,ENE,74,3.0,11.0,58,0.00,,---,0.02,VWS V14.01,2013-04-23 16:26:00,
2013-04-23 12:31:00,85.5,68.5,29.99,ENE,63,13.0,13.0,57,0.00,,---,0.02,VWS V14.01,2013-04-23 16:31:00,
2013-04-23 12:36:00,85.7,68.2,29.99,NE,41,3.0,10.0,56,0.00,,---,0.02,VWS V14.01,2013-04-23 16:36:00,
2013-04-23 12:41:00,86.1,68.6,29.99,NE,44,4.0,10.0,56,0.00,,---,0.02,VWS V14.01,2013-04-23 16:41:00,
2013-04-23 12:46:00,85.9,66.8,29.99,NE,36,6.0,12.0,53,0.00,,---,0.02,VWS V14.01,2013-04-23 16:46:00,
2013-04-23 12:51:00,86.1,66.4,29.98,ENE,65,2.0,12.0,52,0.00,,---,0.02,VWS V14.01,2013-04-23 16:51:00,
2013-04-23 12:56:00,85.9,67.3,29.98,East,90,8.0,16.0,54,0.00,,---,0.02,VWS V14.01,2013-04-23 16:56:00,
2013-04-23 13:01:00,85.7,67.7,29.98,ENE,61,5.0,16.0,55,0.00,,---,0.02,VWS V14.01,2013-04-23 17:01:00,
2013-04-23 13:06:00,85.3,67.3,29.97,ENE,66,11.0,11.0,55,0.00,,---,0.02,VWS V14.01,2013-04-23 17:06:00,
2013-04-23 13:11:00,84.7,66.8,29.97,East,84,9.0,11.0,55,0.00,,---,0.02,VWS V14.01,2013-04-23 17:11:00,
2013-04-23 13:16:00,84.5,68.1,29.97,East,89,4.0,12.0,58,0.00,,---,0.02,VWS V14.01,2013-04-23 17:16:00,
2013-04-23 13:21:00,85.1,68.7,29.97,NNE,17,4.0,12.0,58,0.00,,---,0.02,VWS V14.01,2013-04-23 17:21:00,
2013-04-23 13:26:00,85.5,68.0,29.97,ENE,57,14.0,14.0,56,0.00,,---,0.02,VWS V14.01,2013-04-23 17:26:00,
2013-04-23 13:31:00,85.7,68.7,29.97,NNE,14,1.0,14.0,57,0.00,,---,0.02,VWS V14.01,2013-04-23 17:31:00,
2013-04-23 13:36:00,85.9,68.4,29.96,NE,44,4.0,11.0,56,0.00,,---,0.02,VWS V14.01,2013-04-23 17:36:00,
2013-04-23 13:41:00,86.1,69.1,29.96,NE,41,6.0,11.0,57,0.00,,---,0.02,VWS V14.01,2013-04-23 17:41:00,
2013-04-23 13:47:00,85.7,68.7,29.96,ENE,63,7.0,13.0,57,0.00,,---,0.02,VWS V14.01,2013-04-23 17:47:00,
2013-04-23 13:52:00,85.7,69.7,29.96,NNE,19,6.0,14.0,59,0.00,,---,0.02,VWS V14.01,2013-04-23 17:52:00,
2013-04-23 13:57:00,85.9,68.4,29.96,NE,51,6.0,14.0,56,0.00,,---,0.02,VWS V14.01,2013-04-23 17:57:00,
2013-04-23 14:02:00,85.7,69.7,29.96,East,85,4.0,14.0,59,0.00,,---,0.02,VWS V14.01,2013-04-23 18:02:00,
2013-04-23 14:07:00,86.1,68.6,29.96,ENE,74,10.0,12.0,56,0.00,,---,0.02,VWS V14.01,2013-04-23 18:07:00,
2013-04-23 14:12:00,85.9,67.9,29.96,NE,42,6.0,15.0,55,0.00,,---,0.02,VWS V14.01,2013-04-23 18:12:00,
2013-04-23 14:17:00,85.3,67.8,29.96,East,82,7.0,15.0,56,0.00,,---,0.02,VWS V14.01,2013-04-23 18:17:00,
2013-04-23 14:22:00,85.3,67.8,29.96,North,5,5.0,15.0,56,0.00,,---,0.02,VWS V14.01,2013-04-23 18:22:00,
2013-04-23 14:27:00,85.7,66.6,29.96,NE,56,5.0,15.0,53,0.00,,---,0.02,VWS V14.01,2013-04-23 18:27:00,
2013-04-23 14:32:00,85.7,66.6,29.96,East,98,10.0,15.0,53,0.00,,---,0.02,VWS V14.01,2013-04-23 18:32:00,
2013-04-23 14:37:00,85.5,66.4,29.96,NE,51,10.0,11.0,53,0.00,,---,0.02,VWS V14.01,2013-04-23 18:37:00,
2013-04-23 14:42:00,85.3,66.2,29.96,ENE,59,7.0,11.0,53,0.00,,---,0.02,VWS V14.01,2013-04-23 18:42:00,
2013-04-23 14:47:00,84.7,66.8,29.95,North,10,5.0,11.0,55,0.00,,---,0.02,VWS V14.01,2013-04-23 18:47:00,
2013-04-23 14:52:00,84.9,66.9,29.95,NE,51,5.0,12.0,55,0.00,,---,0.02,VWS V14.01,2013-04-23 18:52:00,
2013-04-23 14:57:00,84.9,65.9,29.95,ENE,58,11.0,15.0,53,0.00,,---,0.02,VWS V14.01,2013-04-23 18:57:00,
2013-04-23 15:02:00,84.5,66.6,29.95,NNW,331,2.0,15.0,55,0.00,,---,0.02,VWS V14.01,2013-04-23 19:02:00,
2013-04-23 15:07:00,84.9,65.9,29.95,ENE,61,3.0,11.0,53,0.00,,---,0.02,VWS V14.01,2013-04-23 19:07:00,
2013-04-23 15:12:00,84.5,66.6,29.95,East,80,5.0,11.0,55,0.00,,---,0.02,VWS V14.01,2013-04-23 19:12:00,
2013-04-23 15:17:00,84.3,66.9,29.95,NE,41,6.0,11.0,56,0.00,,---,0.02,VWS V14.01,2013-04-23 19:17:00,
2013-04-23 15:22:00,84.3,66.4,29.95,North,351,6.0,11.0,55,0.00,,---,0.02,VWS V14.01,2013-04-23 19:22:00,
2013-04-23 15:27:00,84.9,66.4,29.95,NE,34,5.0,14.0,54,0.00,,---,0.02,VWS V14.01,2013-04-23 19:27:00,
2013-04-23 15:32:00,84.9,65.9,29.95,NE,46,4.0,14.0,53,0.00,,---,0.02,VWS V14.01,2013-04-23 19:32:00,
2013-04-23 15:37:00,84.7,66.2,29.95,NNW,333,7.0,7.0,54,0.00,,---,0.02,VWS V14.01,2013-04-23 19:37:00,
2013-04-23 15:43:00,84.7,66.8,29.95,NNE,19,3.0,9.0,55,0.00,,---,0.02,VWS V14.01,2013-04-23 19:43:00,
2013-04-23 15:48:00,84.7,66.2,29.94,ENE,73,6.0,9.0,54,0.00,,---,0.02,VWS V14.01,2013-04-23 19:48:00,
2013-04-23 15:53:00,84.5,66.6,29.94,NNE,31,9.0,9.0,55,0.00,,---,0.02,VWS V14.01,2013-04-23 19:53:00,
2013-04-23 15:58:00,84.5,67.1,29.94,ENE,61,6.0,9.0,56,0.00,,---,0.02,VWS V14.01,2013-04-23 19:58:00,
2013-04-23 16:03:00,85.1,66.6,29.94,NNE,12,2.0,9.0,54,0.00,,---,0.02,VWS V14.01,2013-04-23 20:03:00,
2013-04-23 16:08:00,85.5,65.9,29.94,NE,44,5.0,11.0,52,0.00,,---,0.02,VWS V14.01,2013-04-23 20:08:00,
2013-04-23 16:13:00,85.3,66.8,29.94,NNE,16,4.0,13.0,54,0.00,,---,0.02,VWS V14.01,2013-04-23 20:13:00,
2013-04-23 16:18:00,85.1,66.1,29.94,NE,49,5.0,13.0,53,0.00,,---,0.02,VWS V14.01,2013-04-23 20:18:00,
2013-04-23 16:23:00,84.9,66.9,29.94,NNW,343,1.0,13.0,55,0.00,,---,0.02,VWS V14.01,2013-04-23 20:23:00,
2013-04-23 16:28:00,84.5,65.5,29.94,NNE,12,5.0,13.0,53,0.00,,---,0.02,VWS V14.01,2013-04-23 20:28:00,
2013-04-23 16:33:00,84.1,66.2,29.94,North,355,4.0,4.0,55,0.00,,---,0.02,VWS V14.01,2013-04-23 20:33:00,
2013-04-23 16:38:00,84.0,65.6,29.94,East,95,11.0,11.0,54,0.00,,---,0.02,VWS V14.01,2013-04-23 20:38:00,
2013-04-23 16:43:00,84.0,66.1,29.94,East,86,6.0,11.0,55,0.00,,---,0.02,VWS V14.01,2013-04-23 20:43:00,
2013-04-23 16:48:00,84.3,65.3,29.94,ENE,76,11.0,11.0,53,0.00,,---,0.02,VWS V14.01,2013-04-23 20:48:00,
2013-04-23 16:53:00,84.5,65.0,29.94,NNW,336,7.0,12.0,52,0.00,,---,0.02,VWS V14.01,2013-04-23 20:53:00,
2013-04-23 16:58:00,84.1,65.1,29.94,NE,49,9.0,13.0,53,0.00,,---,0.02,VWS V14.01,2013-04-23 20:58:00,
2013-04-23 17:03:00,84.0,65.6,29.94,North,360,4.0,4.0,54,0.00,,---,0.02,VWS V14.01,2013-04-23 21:03:00,
2013-04-23 17:08:00,84.1,64.6,29.94,NE,34,5.0,8.0,52,0.00,,---,0.02,VWS V14.01,2013-04-23 21:08:00,
2013-04-23 17:13:00,84.3,66.4,29.94,NE,56,10.0,10.0,55,0.00,,---,0.02,VWS V14.01,2013-04-23 21:13:00,
2013-04-23 17:19:00,84.3,65.9,29.94,North,355,3.0,10.0,54,0.00,,---,0.02,VWS V14.01,2013-04-23 21:19:00,
2013-04-23 17:24:00,84.3,65.3,29.94,NE,48,15.0,15.0,53,0.00,,---,0.02,VWS V14.01,2013-04-23 21:24:00,
2013-04-23 17:29:00,83.8,64.9,29.94,NNW,340,3.0,15.0,53,0.00,,---,0.02,VWS V14.01,2013-04-23 21:29:00,
2013-04-23 17:34:00,83.6,64.7,29.94,NNW,337,8.0,8.0,53,0.00,,---,0.02,VWS V14.01,2013-04-23 21:34:00,
2013-04-23 17:39:00,83.4,66.1,29.94,NW,322,3.0,12.0,56,0.00,,---,0.02,VWS V14.01,2013-04-23 21:39:00,
2013-04-23 17:44:00,83.0,64.7,29.94,ENE,57,7.0,14.0,54,0.00,,---,0.02,VWS V14.01,2013-04-23 21:44:00,
2013-04-23 17:49:00,82.4,64.6,29.94,ENE,61,11.0,14.0,55,0.00,,---,0.02,VWS V14.01,2013-04-23 21:49:00,
2013-04-23 17:54:00,82.2,65.0,29.94,ENE,57,7.0,14.0,56,0.00,,---,0.02,VWS V14.01,2013-04-23 21:54:00,
2013-04-23 17:59:00,82.2,65.5,29.94,ENE,74,9.0,14.0,57,0.00,,---,0.02,VWS V14.01,2013-04-23 21:59:00,
2013-04-23 18:04:00,82.2,65.5,29.94,NE,47,4.0,5.0,57,0.00,,---,0.02,VWS V14.01,2013-04-23 22:04:00,
2013-04-23 18:09:00,82.2,65.0,29.94,ENE,69,5.0,10.0,56,0.00,,---,0.02,VWS V14.01,2013-04-23 22:09:00,
2013-04-23 18:14:00,82.2,65.0,29.94,NE,37,5.0,10.0,56,0.00,,---,0.02,VWS V14.01,2013-04-23 22:14:00,
2013-04-23 18:19:00,82.0,64.3,29.95,NNW,329,4.0,11.0,55,0.00,,---,0.02,VWS V14.01,2013-04-23 22:19:00,
2013-04-23 18:24:00,81.6,64.9,29.95,ENE,58,8.0,11.0,57,0.00,,---,0.02,VWS V14.01,2013-04-23 22:24:00,
2013-04-23 18:29:00,81.1,64.4,29.95,NE,51,2.0,11.0,57,0.00,,---,0.02,VWS V14.01,2013-04-23 22:29:00,
2013-04-23 18:34:00,80.9,64.2,29.95,ENE,61,2.0,5.0,57,0.00,,---,0.02,VWS V14.01,2013-04-23 22:34:00,
2013-04-23 18:39:00,80.9,66.2,29.95,East,90,6.0,6.0,61,0.00,,---,0.02,VWS V14.01,2013-04-23 22:39:00,
2013-04-23 18:44:00,80.5,62.9,29.95,ENE,63,6.0,12.0,55,0.00,,---,0.02,VWS V14.01,2013-04-23 22:44:00,
2013-04-23 18:49:00,80.3,64.7,29.96,NE,40,3.0,12.0,59,0.00,,---,0.02,VWS V14.01,2013-04-23 22:49:00,
2013-04-23 18:54:00,79.9,64.8,29.96,ENE,63,3.0,12.0,60,0.00,,---,0.02,VWS V14.01,2013-04-23 22:54:00,
2013-04-23 18:59:00,79.4,63.8,29.96,ENE,61,6.0,12.0,59,0.00,,---,0.02,VWS V14.01,2013-04-23 22:59:00,
2013-04-23 19:04:00,79.0,63.9,29.96,NNE,29,1.0,9.0,60,0.00,,---,0.02,VWS V14.01,2013-04-23 23:04:00,
2013-04-23 19:10:00,78.6,64.0,29.96,NNE,26,0.0,10.0,61,0.00,,---,0.02,VWS V14.01,2013-04-23 23:10:00,
2013-04-23 19:15:00,78.5,64.4,29.96,ENE,60,6.0,10.0,62,0.00,,---,0.02,VWS V14.01,2013-04-23 23:15:00,
2013-04-23 19:20:00,78.3,64.7,29.97,NE,34,2.0,11.0,63,0.00,,---,0.02,VWS V14.01,2013-04-23 23:20:00,
2013-04-23 19:25:00,78.1,64.5,29.97,NE,49,3.0,11.0,63,0.00,,---,0.02,VWS V14.01,2013-04-23 23:25:00,
2013-04-23 19:30:00,78.1,64.9,29.97,ENE,63,0.0,11.0,64,0.00,,---,0.02,VWS V14.01,2013-04-23 23:30:00,
2013-04-23 19:35:00,78.1,65.4,29.97,NNE,15,2.0,4.0,65,0.00,,---,0.02,VWS V14.01,2013-04-23 23:35:00,
2013-04-23 19:40:00,77.9,65.2,29.97,ENE,61,5.0,7.0,65,0.00,,---,0.02,VWS V14.01,2013-04-23 23:40:00,
2013-04-23 19:45:00,77.7,65.0,29.97,ENE,59,7.0,9.0,65,0.00,,---,0.02,VWS V14.01,2013-04-23 23:45:00,
2013-04-23 19:50:00,77.4,64.7,29.97,NE,49,11.0,12.0,65,0.00,,---,0.02,VWS V14.01,2013-04-23 23:50:00,
2013-04-23 19:55:00,77.0,63.9,29.97,NE,38,14.0,14.0,64,0.00,,---,0.02,VWS V14.01,2013-04-23 23:55:00,
2013-04-23 20:00:00,76.7,63.6,29.97,ENE,76,9.0,14.0,64,0.00,,---,0.02,VWS V14.01,2013-04-24 00:00:00,
2013-04-23 20:05:00,76.5,63.4,29.98,ENE,76,1.0,9.0,64,0.00,,---,0.02,VWS V14.01,2013-04-24 00:05:00,
2013-04-23 20:10:00,76.3,63.7,29.98,NNE,29,1.0,9.0,65,0.00,,---,0.02,VWS V14.01,2013-04-24 00:10:00,
2013-04-23 20:15:00,76.1,63.9,29.98,NNW,341,2.0,10.0,66,0.00,,---,0.02,VWS V14.01,2013-04-24 00:15:00,
2013-04-23 20:20:00,76.0,64.3,29.99,NE,46,6.0,10.0,67,0.00,,---,0.02,VWS V14.01,2013-04-24 00:20:00,
2013-04-23 20:25:00,76.0,64.3,29.99,NE,42,4.0,10.0,67,0.00,,---,0.02,VWS V14.01,2013-04-24 00:25:00,
2013-04-23 20:30:00,75.8,64.5,29.99,NE,46,6.0,10.0,68,0.00,,---,0.02,VWS V14.01,2013-04-24 00:30:00,
2013-04-23 20:35:00,75.8,64.9,29.99,NE,46,3.0,7.0,69,0.00,,---,0.02,VWS V14.01,2013-04-24 00:35:00,
2013-04-23 20:40:00,75.8,64.9,29.99,NNW,346,3.0,7.0,69,0.00,,---,0.02,VWS V14.01,2013-04-24 00:40:00,
2013-04-23 20:45:00,75.8,64.5,29.99,NNW,343,4.0,9.0,68,0.00,,---,0.02,VWS V14.01,2013-04-24 00:45:00,
2013-04-23 20:51:00,75.6,64.3,29.99,North,355,0.0,9.0,68,0.00,,---,0.02,VWS V14.01,2013-04-24 00:51:00,
2013-04-23 20:56:00,75.4,64.1,29.99,ENE,58,4.0,9.0,68,0.00,,---,0.02,VWS V14.01,2013-04-24 00:56:00,
2013-04-23 21:01:00,75.4,64.5,29.99,NNE,26,1.0,9.0,69,0.00,,---,0.02,VWS V14.01,2013-04-24 01:01:00,
2013-04-23 21:06:00,75.3,64.4,30.00,NNE,13,2.0,4.0,69,0.00,,---,0.02,VWS V14.01,2013-04-24 01:06:00,
2013-04-23 21:11:00,75.1,64.2,30.00,NNE,28,5.0,5.0,69,0.00,,---,0.02,VWS V14.01,2013-04-24 01:11:00,
2013-04-23 21:16:00,74.9,64.5,30.00,ENE,63,6.0,6.0,70,0.00,,---,0.02,VWS V14.01,2013-04-24 01:16:00,
2013-04-23 21:21:00,74.9,64.1,30.00,NE,38,1.0,6.0,69,0.00,,---,0.02,VWS V14.01,2013-04-24 01:21:00,
2013-04-23 21:26:00,74.7,63.9,30.00,NNE,30,2.0,7.0,69,0.00,,---,0.02,VWS V14.01,2013-04-24 01:26:00,
2013-04-23 21:31:00,74.6,64.2,30.00,NNE,30,2.0,7.0,70,0.00,,---,0.02,VWS V14.01,2013-04-24 01:31:00,
2013-04-23 21:36:00,74.6,64.2,30.00,NNE,17,2.0,4.0,70,0.00,,---,0.02,VWS V14.01,2013-04-24 01:36:00,
2013-04-23 21:41:00,74.4,63.6,30.00,NNE,28,1.0,4.0,69,0.00,,---,0.02,VWS V14.01,2013-04-24 01:41:00,
2013-04-23 21:46:00,74.4,64.0,30.00,NNE,29,1.0,6.0,70,0.00,,---,0.02,VWS V14.01,2013-04-24 01:46:00,
2013-04-23 21:51:00,74.4,64.0,30.01,NNE,29,1.0,6.0,70,0.00,,---,0.02,VWS V14.01,2013-04-24 01:51:00,
2013-04-23 21:56:00,74.2,64.2,30.01,NNE,33,1.0,6.0,71,0.00,,---,0.02,VWS V14.01,2013-04-24 01:56:00,
2013-04-23 22:01:00,74.2,64.2,30.01,NNE,25,4.0,6.0,71,0.00,,---,0.02,VWS V14.01,2013-04-24 02:01:00,
2013-04-23 22:06:00,74.0,64.0,30.02,NNE,33,1.0,4.0,71,0.00,,---,0.02,VWS V14.01,2013-04-24 02:06:00,
2013-04-23 22:11:00,74.0,64.4,30.02,NNE,33,0.0,4.0,72,0.00,,---,0.02,VWS V14.01,2013-04-24 02:11:00,
2013-04-23 22:16:00,74.0,64.4,30.02,NNE,32,1.0,4.0,72,0.00,,---,0.02,VWS V14.01,2013-04-24 02:16:00,
2013-04-23 22:22:00,73.9,64.3,30.02,NE,36,2.0,4.0,72,0.00,,---,0.02,VWS V14.01,2013-04-24 02:22:00,
2013-04-23 22:28:00,73.9,64.3,30.02,NNE,19,2.0,4.0,72,0.00,,---,0.02,VWS V14.01,2013-04-24 02:28:00,
2013-04-23 22:33:00,73.9,63.9,30.02,NNE,32,3.0,4.0,71,0.00,,---,0.02,VWS V14.01,2013-04-24 02:33:00,
2013-04-23 22:38:00,73.9,63.9,30.02,NNE,32,3.0,3.0,71,0.00,,---,0.02,VWS V14.01,2013-04-24 02:38:00,
2013-04-23 22:43:00,73.7,64.1,30.02,NNE,32,0.0,3.0,72,0.00,,---,0.02,VWS V14.01,2013-04-24 02:43:00,
2013-04-23 22:48:00,73.7,63.7,30.02,NNE,32,1.0,3.0,71,0.00,,---,0.02,VWS V14.01,2013-04-24 02:48:00,
2013-04-23 22:55:00,73.5,63.5,30.02,NNE,33,3.0,6.0,71,0.00,,---,0.02,VWS V14.01,2013-04-24 02:55:00,
2013-04-23 23:01:00,73.3,63.3,30.02,NNE,33,0.0,6.0,71,0.00,,---,0.02,VWS V14.01,2013-04-24 03:01:00,
2013-04-23 23:06:00,73.3,62.9,30.02,NNE,33,2.0,2.0,70,0.00,,---,0.02,VWS V14.01,2013-04-24 03:06:00,
2013-04-23 23:11:00,73.3,62.9,30.02,NNE,33,4.0,4.0,70,0.00,,---,0.02,VWS V14.01,2013-04-24 03:11:00,
2013-04-23 23:16:00,73.3,63.3,30.02,NNE,33,1.0,4.0,71,0.00,,---,0.02,VWS V14.01,2013-04-24 03:16:00,
2013-04-23 23:21:00,73.3,63.3,30.02,NNE,33,1.0,4.0,71,0.00,,---,0.02,VWS V14.01,2013-04-24 03:21:00,
2013-04-23 23:26:00,73.3,63.7,30.02,NNE,33,2.0,4.0,72,0.00,,---,0.02,VWS V14.01,2013-04-24 03:26:00,
2013-04-23 23:31:00,73.3,63.7,30.02,NNE,33,1.0,4.0,72,0.00,,---,0.02,VWS V14.01,2013-04-24 03:31:00,
2013-04-23 23:36:00,73.2,63.6,30.02,NNE,33,0.0,1.0,72,0.00,,---,0.02,VWS V14.01,2013-04-24 03:36:00,
2013-04-23 23:42:00,73.2,63.2,30.02,NNE,33,1.0,3.0,71,0.00,,---,0.02,VWS V14.01,2013-04-24 03:42:00,
2013-04-23 23:47:00,73.0,63.0,30.02,NNE,33,0.0,3.0,71,0.00,,---,0.02,VWS V14.01,2013-04-24 03:47:00,
2013-04-23 23:52:00,73.0,63.0,30.02,NNE,33,0.0,3.0,71,0.00,,---,0.02,VWS V14.01,2013-04-24 03:52:00,
2013-04-23 23:57:00,72.8,62.9,30.02,NNE,33,0.0,3.0,71,0.00,,---,0.02,VWS V14.01,2013-04-24 03:57:00,